Regional Weather Roundup
Issued by NWS

Home | Current Version | Previous Version | Graphics & Text | Print | Product List | Glossary On
Versions: 1 2 3 4 5 6 7 8 9 10 11 12 13 14 15 16 17 18 19 20 21 22 23 24 25 26 27 28 29 30 31 32 33 34 35 36 37 38 39 40 41 42 43 44 45 46 47 48 49 50
000
ASUS45 KBOU 191007
RWRCO

WEATHER ROUNDUP FOR COLORADO
NATIONAL WEATHER SERVICE DENVER/BOULDER CO
400 AM MDT TUE SEP 19 2017

NOTE: "FAIR" INDICATES FEW OR NO CLOUDS BELOW 12000 FEET WITH NO
SIGNIFICANT WEATHER AND/OR OBSTRUCTIONS TO VISIBILITY.

COZ001>005-013-030-031-191100-
...NORTHWEST COLORADO...

CITY           SKY/WX    TMP DP  RH WIND       PRES   REMARKS
CRAIG          FAIR      39  31  72 CALM      29.84F
HAYDEN         FAIR      46  29  51 NE7       29.87F
MEEKER         FAIR      57  25  29 CALM      29.86S
RABBIT EARS PA FAIR      45  19  36 S10G20    30.10F
STEAMBOAT SPGS FAIR      46  29  53 CALM      29.88S
WALDEN         FAIR      52  18  25 S17       29.93F
$$

COZ006>008-011-191100-
...WEST CENTRAL VALLEYS...

CITY           SKY/WX    TMP DP  RH WIND       PRES   REMARKS
GRAND JUNCTION FAIR      61  29  29 SE10      29.83S
MONTROSE       FAIR      63  21  20 S10       29.95F
EAGLE          FAIR      51  28  41 E9        29.92F
RIFLE          FAIR      67  22  18 S12       29.85S
DELTA          FAIR      58  26  29 MISG      29.92S
NUCLA          FAIR      61  19  20 S6        30.00F
$$

COZ017>023-064>068-191100-
...SOUTHWEST COLORADO...

CITY           SKY/WX    TMP DP  RH WIND       PRES   REMARKS
DURANGO        FAIR      38  30  73 N8        30.09F
CORTEZ         FAIR      43  29  57 NE5       30.03F
PAGOSA SPRINGS FAIR      37  28  70 CALM      30.16S
TELLURIDE      FAIR      55  15  20 S18G31    30.15S
WOLF CREEK PAS FAIR      34  18  51 SW24G32   30.35R WCI  21
$$

COZ009-010-012-014-032>034-037-058>063-191100-
...CENTRAL COLORADO...

CITY           SKY/WX    TMP DP  RH WIND       PRES   REMARKS
ASPEN          FAIR      51  24  34 S13       29.99F
BUENA VISTA    FAIR      36  25  64 N5        30.03F
COPPER MTN     FAIR      45   9  23 SW13G30   30.21F
BERTHOUD PASS  FAIR      36  30  80 W36G51    30.17R
COTTONWOOD PAS FAIR      52  12  20 CALM      30.13F
GUNNISON       FAIR      34  29  82 CALM      30.10S
KREMMLING      FAIR      54  21  28 CALM      29.94F
LEADVILLE      FAIR      45  13  27 S6        30.10F
MONARCH PASS   FAIR      37  18  44 SW37G44   30.34F
SALIDA         FAIR      59  19  21 W5        30.09S
SUNLIGHT       FAIR      41  19  42 SW24G37   30.15S
WILKERSON PASS FAIR      39  16  38 SW23G33   30.17F
$$

COZ069>075-191100-
...SAN LUIS VALLEY/SANGRE DE CRISTO MOUNTAINS...

CITY           SKY/WX    TMP DP  RH WIND       PRES   REMARKS
ALAMOSA        FAIR      49  26  41 S16       30.08F
DEL NORTE      FAIR      41  24  51 SW7       30.10F
LA VETA PASS   FAIR      48  18  29 S26G51    30.24F
SAGUACHE       FAIR      36  28  75 NW8       30.09F
$$

COZ035-036-038>040-191100-
...NORTHERN COLORADO FRONT RANGE...

CITY           SKY/WX    TMP DP  RH WIND       PRES   REMARKS
DENVER INTL AP FAIR      63  26  24 S16       29.76F
DMNS CITY PARK   N/A     64  28  25 SE8       29.76F
AURORA         PTCLDY    63  26  24 S13       29.79F
FRONT RANGE AP FAIR      63  28  27 S13       29.78S
ERIE MUNI ARPT FAIR      57  32  39 SW9       29.79F
BOULDER MUN AP FAIR      55  32  41 S5        29.74S
CENTENNIAL     FAIR      62  25  24 S13       29.81F
BROOMFIELD     FAIR      57  30  35 SW3       29.78F
FORT COLLINS   FAIR      51  41  68 E8        29.74F
LONGMONT       FAIR      52  40  64 CALM      29.74F
$$

COZ041-046-047-076>085-087-088-191100-
...PIKES PEAK/PALMER DIVIDE AND SOUTHERN FOOTHILLS...

CITY           SKY/WX    TMP DP  RH WIND       PRES   REMARKS
COLO. SPRINGS  FAIR      66  22  18 SW13      29.89S
A. F. ACADEMY  FAIR      53  34  48 CALM      29.89F
SCHRIEVER AFB  FAIR      61  22  22 SW17G23   29.88F
CHEYENNE MTN   NOT AVBL
ELLICOTT       NOT AVBL
FALCON         FAIR      55  25  31 SW7       29.92F
FORT CARSON    FAIR      64  22  20 W8        29.85F
LIMON            N/A    N/A N/A N/A MISG      29.82F
MONUMENT HILL  FAIR      61  19  20 SW18      29.93S
CANON CITY     CLEAR     55  32  41 SW10G17   29.84F
WALSENBURG     FAIR      68  21  17 SW18G24   29.91F
TRINIDAD       FAIR      60  30  32 SW12      29.91F
$$

COZ042>045-048>051-090-091-191100-
...NORTHEAST COLORADO...

CITY           SKY/WX    TMP DP  RH WIND       PRES   REMARKS
GREELEY ARPT   FAIR      47  42  83 CALM      29.73F
AKRON          FAIR      62  44  51 S14       29.73F
BURLINGTON     FAIR      55  52  89 S13       29.76F
WRAY           FAIR      63  54  72 S10       29.72F
YUMA           FAIR      52  36  54 S7        29.72F
STERLING       FAIR      55  48  76 CALM      29.70F
HOLYOKE        FAIR      59  52  77 SE7       29.72F
FORT MORGAN    FAIR      54  39  55 N8        29.73F
$$

COZ086-089-092>099-191100-
...SOUTHEAST COLORADO...

CITY           SKY/WX    TMP DP  RH WIND       PRES   REMARKS
PUEBLO         FAIR      48  31  51 CALM      29.81F
LA JUNTA       FAIR      60  29  30 SW12      29.78F
LAMAR          FAIR      50  43  77 W3        29.75F
SPRINGFIELD      N/A     52  48  86 SW10      29.84
$$



USA.gov is the U.S. government's official web portal to all federal, state and local government web resources and services.